Regional Weather Roundup
Issued by NWS Sioux Falls, SD

Home | Current Version | Previous Version | Graphics & Text | Print | Product List | Glossary Off
Versions: 1 2 3 4 5 6 7 8 9 10 11 12 13 14 15 16 17 18 19 20 21 22 23 24 25 26 27 28 29 30 31 32 33 34 35 36 37 38 39 40 41 42 43 44 45 46 47 48 49 50

000
ASUS43 KFSD 270502
RWRFSD

WEATHER ROUNDUP FOR SE SOUTH DAKOTA/SW MINNESOTA/NW IOWA
NATIONAL WEATHER SERVICE SIOUX FALLS SD
1100 PM CST WED NOV 26 2014

NOTE: "FAIR" INDICATES FEW OR NO CLOUDS BELOW 12,000 FEET WITH NO
SIGNIFICANT WEATHER AND OR OBSTRUCTIONS TO VISIBILITY.


SDZ038>040-050-052>070-270600-
SOUTHEAST SOUTH DAKOTA

CITY           SKY/WX    TMP DP  RH WIND       PRES   REMARKS
CHAMBERLAIN    NOT AVBL
HURON          PTCLDY     0  -5  79 N7        30.50S WCI -13
MADISON        FAIR       1  -2  85 N9        30.43S WCI -14
MITCHELL       CLOUDY     9   3  77 N9        30.50R WCI  -4
SIOUX FALLS    PTCLDY     6  -1  73 N12       30.45R WCI  -9
WINNER         CLOUDY    18  10  71 E9        30.41R WCI   7
YANKTON        CLEAR     10   3  72 NW9       30.48R WCI  -2
$$

MNZ071-072-080-081-089-090-097-098-270600-
SOUTHWEST MINNESOTA

CITY           SKY/WX    TMP DP  RH WIND       PRES   REMARKS
FAIRMONT       CLOUDY     9   1  72 NW16      30.38R WCI  -9
JACKSON        CLOUDY     9   0  66 NW16      30.39R WCI  -9
LUVERNE        CLEAR      9  -4  56 N7        30.45R WCI  -3
MARSHALL       CLEAR      0  -9  65 NW15      30.46R WCI -20
MONTEVIDEO     CLEAR     -2  -6  84 N10       30.49R WCI -19
PIPESTONE      CLEAR      3  -8  60 N9        30.41R WCI -11
REDWOOD FALLS  CLEAR      1  -5  75 NW16      30.45R WCI -19
TRACY          CLEAR      1  -5  73 NW14      30.45R WCI -17
WINDOM         PTCLDY     3  -2  78 NW16      30.40R WCI -16
WORTHINGTON    PTCLDY     3  -6  66 N13       30.40R WCI -14
$$

IAZ001>003-012>014-020>022-031-032-NEZ013-014-SDZ071-270600-
NORTHWEST IOWA

CITY           SKY/WX    TMP DP  RH WIND       PRES   REMARKS
DENISON        CLOUDY    16  10  79 NW15      30.41R WCI   1
ESTHERVILLE    CLOUDY     8   2  76 NW17      30.40R WCI -10
SIOUX CITY     CLOUDY    17  11  77 N12       30.46R WCI   4
SPENCER        MOCLDY     9   2  73 NW9       30.42R WCI  -4
$$

ABBREVIATIONS USED IN REMARKS
   TC - TEMPERATURE IN CELSIUS
  WCI - WIND CHILL INDEX
   HX - HEAT INDEX
  VSB - VISIBILITY



USA.gov is the U.S. government's official web portal to all federal, state and local government web resources and services.